This demonstration page uses our WeatherBlox Daily Observations layout. Learn more.

38.88101, -77.10428

Hourly Observations for June 11, 2016

Temp ( °F °C ) Dew Point ( °F °C ) Humidity (%) Winds ( mph kmh ) Pressure ( in mb ) Visibility ( mi km ) Precip ( " mm )
12:52 am 00:52 Mostly Cloudy 70 21.1 59 15 68 68 S 7 11 30.06 1018 10 16.0934 0 0
1:52 am 01:52 Partly Cloudy 69 20.6 59 15 70 70 S 6 9 30.06 1018 10 16.0934 0 0
2:52 am 02:52 Partly Cloudy 70 21.1 60 15.6 71 71 S 8 13 30.04 1017 10 16.0934 0 0
3:52 am 03:52 Partly Cloudy 68 20 60 15.6 76 76 S 6 9 30.03 1017 10 16.0934 0 0
4:52 am 04:52 Mostly Clear 68 20 61 16.1 78 78 Calm 30.03 1017 10 16.0934 0 0
5:52 am 05:52 Mostly Cloudy 67 19.4 61 16.1 81 81 SSW 6 9 30.02 1017 10 16.0934 0 0
6:52 am 06:52 Partly Cloudy 68 20 61 16.1 78 78 SSW 5 7 30.02 1017 10 16.0934 0 0
7:52 am 07:52 Mostly Cloudy 71 21.7 62 16.7 73 73 S 5 7 30.03 1017 10 16.0934 0 0
8:52 am 08:52 Mostly Cloudy 72 22.2 63 17.2 73 73 S 9 15 30.02 1017 10 16.0934 0 0
9:52 am 09:52 Mostly Cloudy 75 23.9 66 18.9 74 74 S 12 19 30.01 1016 10 16.0934 0 0
10:52 am 10:52 Mostly Cloudy 77 25 66 18.9 69 69 S 12 19 29.99 1016 10 16.0934 0 0
11:52 am 11:52 Mostly Cloudy 81 27.2 67 19.4 62 62 S 12 19 29.98 1015 10 16.0934 0 0
12:52 pm 12:52 Mostly Cloudy 85 29.4 68 20 57 57 S 12 19 29.96 1015 10 16.0934 0 0
1:52 pm 13:52 Mostly Cloudy 90 32.2 69 20.6 50 50 SW 15 24 29.93 1013 10 16.0934 0 0
2:52 pm 14:52 Mostly Cloudy 93 33.9 68 20 44 44 SW 17 28 29.89 1012 10 16.0934 0 0
3:52 pm 15:52 Mostly Cloudy 93 33.9 68 20 44 44 SW 20 31 29.88 1012 10 16.0934 0 0
4:52 pm 16:52 Mostly Cloudy 93 33.9 68 20 44 44 WSW 16 26 29.87 1011 10 16.0934 0 0
5:52 pm 17:52 Mostly Cloudy 96 35.6 60 15.6 30 30 W 17 28 29.85 1011 10 16.0934 0 0
6:52 pm 18:52 Mostly Cloudy 95 35 58 14.4 29 29 W 10 17 29.85 1011 10 16.0934 0 0
7:52 pm 19:52 Mostly Cloudy 93 33.9 58 14.4 31 31 W 10 17 29.85 1011 10 16.0934 0 0
8:52 pm 20:52 Mostly Cloudy 88 31.1 68 20 52 52 SW 7 11 29.85 1011 10 16.0934 0 0
9:52 pm 21:52 Partly Cloudy 85 29.4 69 20.6 59 59 SW 7 11 29.87 1012 10 16.0934 0 0
10:52 pm 22:52 Partly Cloudy 83 28.3 68 20 61 61 SSW 8 13 29.87 1011 10 16.0934 0 0
11:52 pm 23:52 Partly Cloudy 82 27.8 66 18.9 58 58 SSW 8 13 29.86 1011 10 16.0934 0 0

Powered by AerisWeather